Regional Weather Roundup
Issued by NWS

Home | Current Version | Previous Version | Text Only | Print | Product List | Glossary Off
Versions: 1 2 3 4 5 6 7 8 9 10 11 12 13 14 15 16 17 18 19 20 21 22 23 24 25 26 27 28 29 30 31 32 33 34 35 36 37 38 39 40 41 42 43 44 45 46 47 48 49 50

000
ASUS43 KMKX 111759
RWRWI

WISCONSIN REGIONAL WEATHER ROUNDUP
NATIONAL WEATHER SERVICE MILWAUKEE/SULLIVAN WI
1200 PM CST MON DEC 11 2017

NOTE: "FAIR" INDICATES FEW OR NO CLOUDS BELOW 12,000 FEET WITH NO
SIGNIFICANT WEATHER AND/OR OBSTRUCTIONS TO VISIBILITY.

WIZ001-002-006>008-014>016-023>028-111900-
NORTHWEST WISCONSIN

CITY           SKY/WX    TMP DP  RH WIND       PRES   REMARKS
SUPERIOR ARPT  CLOUDY    29  24  83 N8        29.81R WCI  21
ASHLAND        CLOUDY    25  21  85 W6        29.78R WCI  18
6HR MIN TEMP:  19; 6HR MAX TEMP:  25; 6HR PCP:  0.02;

HAYWARD        CLOUDY    27  22  81 VRB3      29.76R
6HR MIN TEMP:  21; 6HR MAX TEMP:  27; 6HR PCP: TRACE;

SIREN          CLOUDY    29  27  90 N8        29.79R WCI  21
CUMBERLAND     LGT SNOW  28  25  86 NW5       29.74R WCI  23
RICE LAKE      LGT SNOW  28  25  89 CALM      29.76S
CHETEK         CLOUDY    28  24  88 CALM      29.75R
LADYSMITH      CLOUDY    26  24  91 CALM      29.75S FOG
EAU CLAIRE     NOT AVBL
MENOMONIE      CLOUDY    30  26  87 CALM      29.75R
NEW RICHMOND   CLOUDY    31  28  88 NW9       29.76R WCI  23
OSCEOLA        CLOUDY    31  31 100 NW7       29.81R WCI  25
$$

WIZ003>005-009-010-017-018-111900-
NORTH CENTRAL WISCONSIN

CITY           SKY/WX    TMP DP  RH WIND       PRES   REMARKS
MANITOWISH WTR FLURRIES  21  21 100 SW6       29.70F WCI  14
ARBOR VITAE    LGT SNOW  23  21  93 SW5       29.70F WCI  17
WOODRUFF       LGT SNOW  23  21  93 SW5       29.70F WCI  17
RHINELANDER    CLOUDY    22  21  96 SW6       29.70F FOG     WCI  14
6HR MIN TEMP:  17; 6HR MAX TEMP:  22; 6HR PCP:  0.01;

EAGLE RIVER    MIX PCPN  21  20  98 SW5       29.69F WCI  15
LAND O LAKES   LGT SNOW  21  19  89 SW5       29.71S WCI  15
PHILLIPS       CLOUDY    22  22  98 CALM      29.71S FOG
TOMAHAWK       CLOUDY    21  20  93 CALM      29.72F FOG
MEDFORD        CLOUDY    24  21  91 SW3       29.70S FOG
MERRILL        CLOUDY    23  22  93 CALM      29.73S
$$

WIZ029-030-035-036-043>047-111900-
CENTRAL WISCONSIN

CITY           SKY/WX    TMP DP  RH WIND       PRES   REMARKS
WAUSAU         CLOUDY    23  22  96 CALM      29.71F FOG
6HR MIN TEMP:  20; 6HR MAX TEMP:  24; 6HR PCP: TRACE;

MOSINEE        CLOUDY    25  25 100 CALM      29.73F FOG
MARSHFIELD     CLOUDY    27  23  85 NW3       29.70S
6HR MIN TEMP:  21; 6HR MAX TEMP:  27; 6HR PCP: TRACE;

STEVENS POINT  CLOUDY    24  23  97 S3        29.73F
WAUPACA        CLOUDY    28  24  84 CALM      29.75F
WAUTOMA        CLOUDY    30  23  75 S5        29.73F WCI  25
6HR MIN TEMP:  21; 6HR MAX TEMP:  30; 6HR PCP: TRACE;

WISC RAPIDS    PTSUNNY   28  24  85 SW3       29.73F
6HR MIN TEMP:  22; 6HR MAX TEMP:  28; 6HR PCP: TRACE;

CAMP DOUGLAS   CLOUDY    30  23  74 CALM      29.72F
$$

WIZ011>013-019>022-031-037>040-048>050-111900-
NORTHEAST WISCONSIN

CITY           SKY/WX    TMP DP  RH WIND       PRES   REMARKS
ANTIGO         CLOUDY    20  20  99 CALM      29.72S
SHAWANO        CLOUDY    26  24  89 CALM      29.75F
OCONTO         CLOUDY    25  23  92 S3        29.77F
STURGEON BAY   MIX PCPN  25  23  92 S8        29.76F FOG     WCI  16
6HR MIN TEMP:  20; 6HR MAX TEMP:  25; 6HR PCP: TRACE;

GREEN BAY      CLOUDY    26  23  88 S6        29.75F WCI  19
6HR MIN TEMP:  21; 6HR MAX TEMP:  26; 6HR PCP:  0.02;

MANITOWOC      CLOUDY    27  23  85 S7        29.76F WCI  19
6HR MIN TEMP:  22; 6HR MAX TEMP:  27; 6HR PCP: TRACE;

APPLETON       CLOUDY    27  21  80 S6        29.72F WCI  20
CLINTONVILLE   CLOUDY    25  21  86 CALM      29.75F
OSHKOSH        CLOUDY    29  24  82 S7        29.73F WCI  22
6HR MIN TEMP:  22; 6HR MAX TEMP:  29; 6HR PCP: TRACE;

$$

WIZ032>034-041-042-053>061-111900-
SOUTHWEST WISCONSIN

CITY           SKY/WX    TMP DP  RH WIND       PRES   REMARKS
LA CROSSE      LGT SNOW  29  26  89 CALM      29.75R FOG
6HR MIN TEMP:  26; 6HR MAX TEMP:  29; 6HR PCP:  0.08;

SPARTA         PTSUNNY   29  26  87 CALM      29.74S
VIROQUA        CLOUDY    28  27  96 CALM      29.70F
BOSCOBEL       CLOUDY    32  25  75 NE3       29.73F
6HR MIN TEMP:  24; 6HR MAX TEMP:  32;

PRAIRIE DU CHI CLOUDY    32  24  72 CALM      29.73S
PLATTEVILLE    MOSUNNY   33  28  83 CALM      29.70F
$$

WIZ056-057-062-063-064-067-068-111900-
SOUTH CENTRAL WISCONSIN

CITY           SKY/WX    TMP DP  RH WIND       PRES   REMARKS
REEDSBURG      CLOUDY    29  24  81 CALM      29.72S
BARABOO/DELLS  CLOUDY    30  24  76 CALM      29.72S
LONE ROCK      NOT AVBL
MINERAL POINT  MOSUNNY   32  30  93 CALM      29.69F
MADISON        CLOUDY    31  25  78 S9        29.71F WCI  23
6HR MIN TEMP:  23; 6HR MAX TEMP:  31; 6HR PCP: TRACE;

MIDDLETON      CLOUDY    32  27  80 S7        29.71F WCI  26
WATERTOWN      CLOUDY    31  26  82 SE6       29.72F WCI  25
MONROE         CLOUDY    32  27  80 E5        29.69F WCI  27
JANESVILLE     CLOUDY    36  27  69 S6        29.71F WCI  31
$$

WIZ051-052-058>065-066-070>072-111900-
SOUTHEAST WISCONSIN

CITY           SKY/WX    TMP DP  RH WIND       PRES   REMARKS
MILWAUKEE      CLOUDY    32  25  75 S8        29.75F WCI  25
6HR MIN TEMP:  24; 6HR MAX TEMP:  32; 6HR PCP:  0.01;

WAUKESHA       CLOUDY    28  21  74 S9        29.75F WCI  20
MILWAUKEE/TIMM CLOUDY    30  21  69 S8        29.76F WCI  23
RACINE         CLOUDY    32  26  78 S9        29.76F WCI  24
6HR MIN TEMP:  24; 6HR MAX TEMP:  33; 6HR PCP:  0.01;

BURLINGTON     CLOUDY    39  36  87 S7        29.75F WCI  34
KENOSHA        CLOUDY    33  25  72 S7        29.75F WCI  27
6HR MIN TEMP:  25; 6HR MAX TEMP:  33; 6HR PCP: TRACE;

FOND DU LAC    CLOUDY    31  23  72 S10       29.73F WCI  22
6HR MIN TEMP:  23; 6HR MAX TEMP:  31; 6HR PCP:  0.01;

SHEBOYGAN      CLOUDY    28  24  85 S9        29.75F WCI  19
6HR MIN TEMP:  22; 6HR MAX TEMP:  28; 6HR PCP: TRACE;

WEST BEND      CLOUDY    30  25  80 S6        29.75F WCI  24
JUNEAU         CLOUDY    28  23  81 SE7       29.74F WCI  21
$$

LSZ147-162-111900-
LAKE SUPERIOR

STATION/POSITION TIME  TEMP    WIND        PRES    WAVE
                       AIR SEA DIR/SP/G            HT/PER
                 (UTC) (F)     (DEG/KT/KT) (MB)    (FT/S)
DEVILS ISLAND    1700   27     250/ 10/ 13 1008.6S
SAXON HARBOR     1730   26                 1007.8S
$$

LMZ867-665-643>646-111900-
LAKE MICHIGAN

STATION/POSITION TIME  TEMP    WIND        PRES    WAVE
                       AIR SEA DIR/SP/G            HT/PER
                 (UTC) (F)     (DEG/KT/KT) (MB)    (FT/S)
NORTHPORT PIER   1740   26      CALM  /  7 1008.5F
KEWAUNEE LAKESHO 1730   27     200/  6/  8 1007.6F
SHEBOYGAN LAKESH 1700   29     190/ 12/ 14 1009.2F
PORT WASHINGTON  1740   31     180/  7/ 12 1008.8F
MILWAUKEE LAKESH 1730   31     180/  9/ 10   N/A
KENOSHA   LAKESH 1700   31     170/  9/ 12 1008.8
$$

TC  - TEMPERATURE IN CELSIUS
VSB - VISIBILITY IN STATUTE MILES
WCI - WIND CHILL INDEX
HX  - HEAT INDEX





USA.gov is the U.S. government's official web portal to all federal, state and local government web resources and services.